Language: 


Des rapports , des résumés tant et plus, au choix de chacun....


Données statistiques de la station
Quotidien Rapport Février 6, 2018 Unités:  Métrique    Anglais   les deux
« Précédent Jour
Suivant Jour »
Quotidien Hebdomadaire Mensuel Annuel Actuel
  Haut: Bas: Moyen:
Température: -17.8 °C -18.9 °C -17.9 °C
Pt de rosée: -17.8 °C -20 °C -19.4 °C
Humidité: Humidity % 69 % 84 %
Vitesse du vent: 0 km/h 8.9 km/h 20.4 km/h
Rafales: 0 km/h - -
Vent:- - NE
Pression: 0 hPa 34269.7 hPa -
Précipitation: 0 mm    
Historical Graphs
 
 
Données statistiques pour Février 6, 2018
Heure Température Point de rosée Pression Vent Vitesse du vent Refales Humidité Pluie (taux horaire)
-17.8 °C -17.8 °C 0 hPa Calm     Humidity % 0 mm
00:04 -17.6 °C -18.3 °C 34496.6 hPa NE 20.3 km/h 23.8 km/h 90 % 0 mm
00:09 -17.6 °C -18.3 °C 34496.6 hPa NE 20.9 km/h 24.3 km/h 89 % 0 mm
00:14 -17.6 °C -18.3 °C 34476.3 hPa NE 22 km/h 24.3 km/h 89 % 0 mm
00:19 -17.7 °C -18.3 °C 34476.3 hPa NE 20.9 km/h 27.2 km/h 89 % 0 mm
00:24 -17.7 °C -18.3 °C 34476.3 hPa ENE 24.3 km/h 27.7 km/h 89 % 0 mm
00:29 -17.7 °C -18.3 °C 34476.3 hPa NE 19.2 km/h 27.7 km/h 89 % 0 mm
00:34 -17.7 °C -18.3 °C 34476.3 hPa ENE 19.6 km/h 24.3 km/h 89 % 0 mm
00:39 -17.7 °C -18.3 °C 34476.3 hPa ENE 19.6 km/h 20.3 km/h 89 % 0 mm
00:44 -17.7 °C -18.3 °C 34476.3 hPa ENE 19.6 km/h 20.3 km/h 89 % 0 mm
00:49 -17.7 °C -18.3 °C 34476.3 hPa ENE 19.6 km/h 20.3 km/h 89 % 0 mm
00:54 -17.7 °C -18.3 °C 34476.3 hPa ENE 19.6 km/h 19.6 km/h 89 % 0 mm
00:59 -17.7 °C -18.3 °C 34428.8 hPa ENE 19.6 km/h 19.6 km/h 88 % 0 mm
01:04 -17.7 °C -18.3 °C 34428.8 hPa NE 19.6 km/h 19.6 km/h 88 % 0 mm
01:09 -17.8 °C -19.4 °C 34428.8 hPa NE 19.6 km/h 19.6 km/h 88 % 0 mm
01:14 -17.8 °C -19.4 °C 34428.8 hPa NE 19.6 km/h 19.6 km/h 88 % 0 mm
01:19 -17.8 °C -19.4 °C 34428.8 hPa ENE 15 km/h 19.6 km/h 88 % 0 mm
01:24 -17.8 °C -19.4 °C 34428.8 hPa ENE 15.6 km/h 19.6 km/h 88 % 0 mm
01:29 -17.8 °C -19.4 °C 34405.1 hPa ENE 15.6 km/h 17.4 km/h 88 % 0 mm
01:34 -17.8 °C -19.4 °C 34405.1 hPa ENE 15.6 km/h 15.6 km/h 88 % 0 mm
01:39 -17.8 °C -19.4 °C 34405.1 hPa ENE 16.9 km/h 22 km/h 88 % 0 mm
01:44 -17.9 °C -19.4 °C 34428.8 hPa NNE 15 km/h 22 km/h 88 % 0 mm
01:50 -17.9 °C -19.4 °C 34428.8 hPa NNE 15 km/h 16.9 km/h 88 % 0 mm
01:55 -17.9 °C -19.4 °C 34428.8 hPa NNE 15 km/h 15 km/h 88 % 0 mm
02:00 -17.9 °C -19.4 °C 34428.8 hPa NNE 20.3 km/h 20.3 km/h 88 % 0 mm
02:05 -17.9 °C -19.4 °C 34428.8 hPa NE 15 km/h 20.3 km/h 88 % 0 mm
02:10 -18 °C -19.4 °C 34428.8 hPa NE 15 km/h 20.3 km/h 88 % 0 mm
02:15 -18 °C -19.4 °C 34428.8 hPa NE 20.3 km/h 20.3 km/h 88 % 0 mm
02:20 -18.1 °C -19.4 °C 34428.8 hPa NE 20.3 km/h 22.5 km/h 88 % 0 mm
02:21 -18.1 °C -19.4 °C 34428.8 hPa NE 20.3 km/h 22.5 km/h 88 % 0 mm
02:26 -18.1 °C -19.4 °C 34428.8 hPa NE 18.7 km/h 22.5 km/h 88 % 0 mm
02:31 -18.1 °C -19.4 °C 34428.8 hPa ENE 19.2 km/h 20.3 km/h 88 % 0 mm
02:36 -18.1 °C -19.4 °C 34428.8 hPa ENE 16.3 km/h 19.2 km/h 88 % 0 mm
02:41 -18.2 °C -19.4 °C 34428.8 hPa ENE 26.2 km/h 26.2 km/h 88 % 0 mm
02:46 -18.2 °C -19.4 °C 34405.1 hPa NE 22.5 km/h 26.2 km/h 88 % 0 mm
02:51 -18.2 °C -19.4 °C 34405.1 hPa NE 20.3 km/h 26.2 km/h 88 % 0 mm
02:56 -18.2 °C -19.4 °C 34405.1 hPa ENE 26.2 km/h 26.2 km/h 88 % 0 mm
03:01 -18.2 °C -19.4 °C 34405.1 hPa NNE 23 km/h 26.2 km/h 88 % 0 mm
03:06 -18.3 °C -19.4 °C 34405.1 hPa ENE 19.6 km/h 26.2 km/h 88 % 0 mm
03:11 -18.3 °C -19.4 °C 34405.1 hPa NE 19.2 km/h 23 km/h 88 % 0 mm
03:16 -18.3 °C -19.4 °C 34371.3 hPa NE 22 km/h 22 km/h 89 % 0 mm
03:21 -18.3 °C -19.4 °C 34371.3 hPa ENE 14.5 km/h 22 km/h 89 % 0 mm
03:26 -18.4 °C -19.4 °C 34371.3 hPa NE 20.3 km/h 24.3 km/h 89 % 0 mm
03:31 -18.4 °C -19.4 °C 34371.3 hPa ENE 16.3 km/h 24.3 km/h 90 % 0 mm
03:36 -18.4 °C -19.4 °C 34371.3 hPa ENE 19.6 km/h 24.3 km/h 90 % 0 mm
03:41 -18.4 °C -19.4 °C 34371.3 hPa ENE 14.5 km/h 22.5 km/h 90 % 0 mm
03:46 -18.4 °C -19.4 °C 34371.3 hPa NE 19.2 km/h 22 km/h 90 % 0 mm
03:51 -18.5 °C -19.4 °C 34371.3 hPa NE 11.1 km/h 22.5 km/h 90 % 0 mm
03:56 -18.5 °C -19.4 °C 34371.3 hPa ENE 9.8 km/h 22.5 km/h 90 % 0 mm
04:01 -18.6 °C -19.4 °C 34371.3 hPa NE 10.3 km/h 19.2 km/h 90 % 0 mm
04:06 -18.6 °C -19.4 °C 34371.3 hPa ENE 14 km/h 20.9 km/h 90 % 0 mm
04:11 -18.6 °C -19.4 °C 34371.3 hPa ENE 11.1 km/h 20.9 km/h 90 % 0 mm
04:16 -18.6 °C -20 °C 34371.3 hPa ENE 14.5 km/h 19.2 km/h 90 % 0 mm
04:21 -18.6 °C -19.4 °C 34371.3 hPa NE 16.9 km/h 19.2 km/h 91 % 0 mm
04:26 -18.6 °C -19.4 °C 34371.3 hPa ENE 14 km/h 16.9 km/h 91 % 0 mm
04:31 -18.6 °C -19.4 °C 34371.3 hPa ENE 15 km/h 16.9 km/h 91 % 0 mm
04:36 -18.6 °C -19.4 °C 34371.3 hPa NE 20.9 km/h 22 km/h 92 % 0 mm
04:41 -18.6 °C -19.4 °C 34371.3 hPa NE 16.9 km/h 22.5 km/h 92 % 0 mm
04:47 -18.5 °C -19.4 °C 34371.3 hPa NE 8.9 km/h 22.5 km/h 92 % 0 mm
04:52 -18.6 °C -19.4 °C 34371.3 hPa ENE 12.7 km/h 20.9 km/h 92 % 0 mm
04:57 -18.6 °C -19.4 °C 34371.3 hPa NNE 16.9 km/h 20.9 km/h 91 % 0 mm
05:02 -18.6 °C -19.4 °C 34337.4 hPa ENE 10.3 km/h 22 km/h 91 % 0 mm
05:07 -18.6 °C -19.4 °C 34337.4 hPa NE 11.1 km/h 22 km/h 91 % 0 mm
05:12 -18.6 °C -19.4 °C 34337.4 hPa NNE 16.9 km/h 19.6 km/h 91 % 0 mm
05:17 -18.6 °C -19.4 °C 34371.3 hPa NNE 17.4 km/h 19.6 km/h 92 % 0 mm
05:22 -18.6 °C -19.4 °C 34371.3 hPa NE 22 km/h 22.5 km/h 92 % 0 mm
05:27 -18.6 °C -19.4 °C 34371.3 hPa NNE 20.3 km/h 22.5 km/h 92 % 0 mm
05:32 -18.6 °C -19.4 °C 34337.4 hPa NE 19.2 km/h 22 km/h 92 % 0 mm
05:37 -18.6 °C -19.4 °C 34337.4 hPa NNE 8.9 km/h 22 km/h 93 % 0 mm
05:42 -18.6 °C -19.4 °C 34337.4 hPa NNE 15 km/h 20.3 km/h 93 % 0 mm
05:47 -18.6 °C -19.4 °C 34371.3 hPa NNE 12.7 km/h 22 km/h 93 % 0 mm
05:52 -18.6 °C -19.4 °C 34371.3 hPa North 16.3 km/h 22 km/h 93 % 0 mm
05:57 -18.6 °C -19.4 °C 34371.3 hPa NNE 16.9 km/h 22 km/h 93 % 0 mm
06:02 -18.6 °C -19.4 °C 34337.4 hPa North 15 km/h 26.7 km/h 93 % 0 mm
06:07 -18.6 °C -19.4 °C 34337.4 hPa NNE 14.5 km/h 26.7 km/h 93 % 0 mm
06:12 -18.7 °C -19.4 °C 34337.4 hPa NNE 25.4 km/h 25.4 km/h 93 % 0 mm
06:17 -18.7 °C -19.4 °C 34337.4 hPa NNE 20.3 km/h 25.4 km/h 93 % 0 mm
06:22 -18.7 °C -19.4 °C 34337.4 hPa NE 19.6 km/h 25.4 km/h 93 % 0 mm
06:27 -18.7 °C -19.4 °C 34337.4 hPa North 17.9 km/h 22.5 km/h 93 % 0 mm
06:32 -18.7 °C -19.4 °C 34337.4 hPa ENE 16.9 km/h 20.9 km/h 93 % 0 mm
06:38 -18.7 °C -19.4 °C 34337.4 hPa NE 14 km/h 22.5 km/h 93 % 0 mm
06:43 -18.7 °C -19.4 °C 34337.4 hPa NNE 17.9 km/h 22.5 km/h 93 % 0 mm
06:48 -18.7 °C -19.4 °C 34337.4 hPa NNE 16.3 km/h 22.5 km/h 93 % 0 mm
06:53 -18.7 °C -19.4 °C 34337.4 hPa NE 22 km/h 30.7 km/h 93 % 0 mm
06:58 -18.8 °C -19.4 °C 34337.4 hPa NE 22 km/h 30.7 km/h 93 % 0 mm
07:03 -18.8 °C -19.4 °C 34337.4 hPa NE 22 km/h 26.7 km/h 93 % 0 mm
07:08 -18.8 °C -19.4 °C 34337.4 hPa NE 20.9 km/h 26.7 km/h 93 % 0 mm
07:13 -18.8 °C -19.4 °C 34337.4 hPa NE 20.3 km/h 26.2 km/h 93 % 0 mm
07:18 -18.8 °C -19.4 °C 34337.4 hPa NE 20.9 km/h 26.2 km/h 93 % 0 mm
07:23 -18.8 °C -19.4 °C 34337.4 hPa ENE 14.5 km/h 26.2 km/h 94 % 0 mm
07:28 -18.8 °C -19.4 °C 34337.4 hPa NNE 14.5 km/h 25.4 km/h 94 % 0 mm
07:33 -18.8 °C -19.4 °C 34337.4 hPa NNE 22 km/h 24.3 km/h 94 % 0 mm
07:38 -18.8 °C -19.4 °C 34337.4 hPa NNE 16.3 km/h 22.5 km/h 94 % 0 mm
07:43 -18.8 °C -19.4 °C 34337.4 hPa NNE 19.6 km/h 22.5 km/h 94 % 0 mm
07:48 -18.9 °C -19.4 °C 34337.4 hPa North 24.8 km/h 24.8 km/h 95 % 0 mm
07:53 -18.9 °C -19.4 °C 34337.4 hPa NNE 19.2 km/h 24.8 km/h 95 % 0 mm
07:58 -18.9 °C -19.4 °C 34337.4 hPa NNE 19.2 km/h 22 km/h 95 % 0 mm
08:03 -18.9 °C -19.4 °C 34337.4 hPa NNE 19.2 km/h 19.2 km/h 95 % 0 mm
08:08 -18.9 °C -19.4 °C 34337.4 hPa NE 15.6 km/h 19.2 km/h 95 % 0 mm
08:13 -18.9 °C -19.4 °C 34337.4 hPa NNE 20.9 km/h 25.4 km/h 95 % 0 mm
08:18 -18.8 °C -19.4 °C 34337.4 hPa NE 22.5 km/h 25.4 km/h 94 % 0 mm
08:23 -18.8 °C -19.4 °C 34337.4 hPa NE 22 km/h 22.5 km/h 94 % 0 mm
08:28 -18.8 °C -19.4 °C 34337.4 hPa NE 22 km/h 22.5 km/h 93 % 0 mm
08:33 -18.8 °C -19.4 °C 34337.4 hPa NE 26.2 km/h 26.2 km/h 93 % 0 mm
08:38 -18.8 °C -19.4 °C 34337.4 hPa NE 22.5 km/h 26.2 km/h 93 % 0 mm
08:43 -18.8 °C -19.4 °C 34337.4 hPa NE 22.5 km/h 26.2 km/h 92 % 0 mm
08:48 -18.8 °C -19.4 °C 34337.4 hPa NNE 16.9 km/h 22.5 km/h 92 % 0 mm
08:53 -18.8 °C -19.4 °C 34337.4 hPa NNE 16.9 km/h 22.5 km/h 92 % 0 mm
08:59 -18.7 °C -19.4 °C 34337.4 hPa NNE 22 km/h 27.2 km/h 92 % 0 mm
09:04 -18.7 °C -19.4 °C 34337.4 hPa NNE 22 km/h 27.2 km/h 91 % 0 mm
09:09 -18.7 °C -19.4 °C 34337.4 hPa NE 22.5 km/h 22.5 km/h 91 % 0 mm
09:14 -18.7 °C -19.4 °C 34337.4 hPa NE 22.5 km/h 22.5 km/h 91 % 0 mm
09:19 -18.7 °C -19.4 °C 34337.4 hPa NE 22.5 km/h 22.5 km/h 91 % 0 mm
09:24 -18.7 °C -20 °C 34337.4 hPa NE 22.5 km/h 22.5 km/h 90 % 0 mm
09:29 -18.7 °C -20 °C 34337.4 hPa NE 22.5 km/h 22.5 km/h 90 % 0 mm
09:34 -18.7 °C -20 °C 34337.4 hPa NE 22.5 km/h 22.5 km/h 90 % 0 mm
09:39 -18.7 °C -20 °C 34337.4 hPa NNE 22.5 km/h 22.5 km/h 90 % 0 mm
09:44 -18.7 °C -20 °C 34337.4 hPa NE 26.2 km/h 26.2 km/h 90 % 0 mm
09:49 -18.7 °C -20 °C 34337.4 hPa NE 22.5 km/h 26.2 km/h 90 % 0 mm
09:54 -18.6 °C -20 °C 34337.4 hPa NNE 22.5 km/h 27.2 km/h 89 % 0 mm
09:59 -18.6 °C -19.4 °C 34337.4 hPa NNE 22.5 km/h 27.2 km/h 89 % 0 mm
10:04 -18.6 °C -19.4 °C 34337.4 hPa NNE 22.5 km/h 26.2 km/h 89 % 0 mm
10:10 -18.5 °C -19.4 °C 34337.4 hPa NE 22 km/h 22.5 km/h 89 % 0 mm
10:15 -18.4 °C -19.4 °C 34337.4 hPa NE 22 km/h 22.5 km/h 89 % 0 mm
10:20 -18.4 °C -19.4 °C 34337.4 hPa NE 22 km/h 22 km/h 88 % 0 mm
10:25 -18.4 °C -19.4 °C 34337.4 hPa NE 22 km/h 22 km/h 88 % 0 mm
10:30 -18.3 °C -19.4 °C 34337.4 hPa NE 22 km/h 22 km/h 87 % 0 mm
10:35 -18.3 °C -19.4 °C 34337.4 hPa NE 27.2 km/h 32.3 km/h 87 % 0 mm
10:40 -18.3 °C -20 °C 34337.4 hPa ENE 19.6 km/h 32.3 km/h 86 % 0 mm
10:45 -18.3 °C -20 °C 34337.4 hPa NNE 20.3 km/h 27.2 km/h 86 % 0 mm
10:50 -18.2 °C -20 °C 34337.4 hPa NNE 20.3 km/h 26.7 km/h 85 % 0 mm
10:55 -18.2 °C -19.4 °C 34337.4 hPa NNE 20.3 km/h 20.3 km/h 85 % 0 mm
11:00 -18.1 °C -19.4 °C 34337.4 hPa NE 24.3 km/h 24.3 km/h 85 % 0 mm
11:05 -18 °C -20 °C 34337.4 hPa NE 24.3 km/h 24.3 km/h 83 % 0 mm
11:10 -18 °C -20 °C 34337.4 hPa NE 24.3 km/h 24.3 km/h 82 % 0 mm
11:15 -17.9 °C -20 °C 34337.4 hPa NE 24.3 km/h 24.3 km/h 81 % 0 mm
11:20 -18 °C -20 °C 34337.4 hPa NE 24.3 km/h 24.3 km/h 80 % 0 mm
11:25 -18 °C -20 °C 34337.4 hPa NE 24.3 km/h 24.3 km/h 79 % 0 mm
11:30 -17.9 °C -20 °C 34337.4 hPa NNE 27.2 km/h 27.2 km/h 80 % 0 mm
11:35 -17.8 °C -20 °C 34337.4 hPa NNE 27.2 km/h 27.2 km/h 80 % 0 mm
11:40 -17.7 °C -19.4 °C 34337.4 hPa NNE 27.2 km/h 27.2 km/h 80 % 0 mm
11:45 -17.7 °C -19.4 °C 34337.4 hPa NNE 27.2 km/h 27.2 km/h 80 % 0 mm
11:51 -17.6 °C -19.4 °C 34337.4 hPa NNE 26.2 km/h 27.2 km/h 79 % 0 mm
11:56 -17.6 °C -19.4 °C 34337.4 hPa NNE 27.2 km/h 27.2 km/h 79 % 0 mm
12:01 -17.6 °C -18.9 °C 34303.6 hPa NNE 22.5 km/h 28.5 km/h 80 % 0 mm
12:06 -17.6 °C -19.4 °C 34303.6 hPa NE 22 km/h 28.5 km/h 79 % 0 mm
12:11 -17.7 °C -19.4 °C 34303.6 hPa NE 22 km/h 27.2 km/h 79 % 0 mm
12:16 -17.7 °C -19.4 °C 34337.4 hPa NE 22 km/h 22 km/h 79 % 0 mm
12:21 -17.6 °C -19.4 °C 34337.4 hPa NE 31.9 km/h 31.9 km/h 79 % 0 mm
12:26 -17.6 °C -18.9 °C 34337.4 hPa NE 31.9 km/h 31.9 km/h 80 % 0 mm
12:31 -17.6 °C -18.9 °C 34303.6 hPa NE 31.9 km/h 31.9 km/h 80 % 0 mm
12:36 -17.6 °C -19.4 °C 34303.6 hPa NE 31.9 km/h 31.9 km/h 79 % 0 mm
12:41 -17.6 °C -19.4 °C 34303.6 hPa NE 31.9 km/h 31.9 km/h 79 % 0 mm
12:46 -17.6 °C -19.4 °C 34303.6 hPa NE 31.9 km/h 31.9 km/h 79 % 0 mm
12:51 -17.5 °C -18.9 °C 34303.6 hPa NE 31.9 km/h 31.9 km/h 79 % 0 mm
12:56 -17.4 °C -18.9 °C 34303.6 hPa NE 31.9 km/h 31.9 km/h 79 % 0 mm
13:01 -17.4 °C -19.4 °C 34303.6 hPa NE 31.9 km/h 31.9 km/h 78 % 0 mm
13:06 -17.4 °C -19.4 °C 34303.6 hPa NE 31.9 km/h 31.9 km/h 77 % 0 mm
13:11 -17.4 °C -19.4 °C 34303.6 hPa NE 31.9 km/h 31.9 km/h 78 % 0 mm
13:16 -17.3 °C -18.9 °C 34269.7 hPa NE 31.9 km/h 31.9 km/h 78 % 0 mm
13:21 -17.2 °C -18.9 °C 34269.7 hPa NE 31.9 km/h 31.9 km/h 77 % 0 mm
13:26 -17.2 °C -18.9 °C 34269.7 hPa NE 31.9 km/h 31.9 km/h 77 % 0 mm
13:31 -17 °C -18.9 °C 34303.6 hPa NE 31.9 km/h 31.9 km/h 76 % 0 mm
13:36 -17 °C -18.9 °C 34303.6 hPa NE 31.9 km/h 31.9 km/h 75 % 0 mm
13:41 -17.1 °C -19.4 °C 34303.6 hPa NE 31.9 km/h 31.9 km/h 74 % 0 mm
13:46 -17.1 °C -18.9 °C 34303.6 hPa NE 31.9 km/h 31.9 km/h 75 % 0 mm
13:51 -17.1 °C -18.9 °C 34303.6 hPa NE 31.9 km/h 31.9 km/h 75 % 0 mm
13:56 -17.1 °C -18.9 °C 34303.6 hPa NE 31.9 km/h 31.9 km/h 75 % 0 mm
14:01 -17.1 °C -18.9 °C 34303.6 hPa NE 31.9 km/h 31.9 km/h 75 % 0 mm
14:06 -16.9 °C -18.9 °C 34303.6 hPa NE 31.9 km/h 31.9 km/h 75 % 0 mm
14:12 -16.8 °C -18.9 °C 34303.6 hPa NE 31.9 km/h 31.9 km/h 74 % 0 mm
14:17 -16.8 °C -19.4 °C 34303.6 hPa NE 31.9 km/h 31.9 km/h 73 % 0 mm
14:22 -16.8 °C -19.4 °C 34303.6 hPa NE 31.9 km/h 31.9 km/h 72 % 0 mm
14:27 -16.9 °C -19.4 °C 34303.6 hPa NE 31.9 km/h 31.9 km/h 71 % 0 mm
14:32 -16.9 °C -19.4 °C 34303.6 hPa NE 31.9 km/h 31.9 km/h 73 % 0 mm
14:37 -16.9 °C -19.4 °C 34303.6 hPa NE 31.9 km/h 31.9 km/h 73 % 0 mm
14:42 -17 °C -19.4 °C 34303.6 hPa NE 31.9 km/h 31.9 km/h 73 % 0 mm
14:47 -16.9 °C -19.4 °C 34269.7 hPa NE 31.9 km/h 31.9 km/h 73 % 0 mm
14:52 -16.9 °C -19.4 °C 34269.7 hPa NE 31.9 km/h 31.9 km/h 72 % 0 mm
14:57 -16.9 °C -19.4 °C 34269.7 hPa NE 31.9 km/h 31.9 km/h 72 % 0 mm
15:02 -16.9 °C -19.4 °C 34269.7 hPa NE 31.9 km/h 31.9 km/h 71 % 0 mm
15:07 -16.8 °C -19.4 °C 34269.7 hPa NE 31.9 km/h 31.9 km/h 71 % 0 mm
15:12 -16.7 °C -19.4 °C 34269.7 hPa NE 31.9 km/h 31.9 km/h 71 % 0 mm
15:17 -16.8 °C -19.4 °C 34269.7 hPa NE 31.9 km/h 31.9 km/h 70 % 0 mm
15:22 -16.8 °C -19.4 °C 34269.7 hPa NE 31.9 km/h 31.9 km/h 71 % 0 mm
15:27 -16.8 °C -19.4 °C 34269.7 hPa NE 31.9 km/h 31.9 km/h 72 % 0 mm
15:32 -16.9 °C -19.4 °C 34269.7 hPa NE 31.9 km/h 31.9 km/h 72 % 0 mm
15:37 -16.8 °C -19.4 °C 34269.7 hPa NE 31.9 km/h 31.9 km/h 71 % 0 mm
15:42 -16.7 °C -18.9 °C 34269.7 hPa NE 31.9 km/h 31.9 km/h 72 % 0 mm
15:47 -16.7 °C -18.9 °C 34269.7 hPa NE 25.4 km/h 25.4 km/h 71 % 0 mm
15:52 -16.7 °C -19.4 °C 34269.7 hPa NE 25.4 km/h 25.4 km/h 70 % 0 mm
15:57 -16.8 °C -19.4 °C 34269.7 hPa NE 25.4 km/h 25.4 km/h 70 % 0 mm
16:02 -16.8 °C -19.4 °C 34269.7 hPa NE 25.4 km/h 25.4 km/h 70 % 0 mm
16:07 -16.8 °C -19.4 °C 34269.7 hPa NNE 26.2 km/h 26.2 km/h 69 % 0 mm
16:12 -16.8 °C -19.4 °C 34269.7 hPa NNE 26.2 km/h 26.2 km/h 70 % 0 mm
16:17 -16.8 °C -19.4 °C 34269.7 hPa NNE 26.2 km/h 26.2 km/h 69 % 0 mm
16:22 -16.9 °C -19.4 °C 34269.7 hPa NNE 26.2 km/h 26.2 km/h 69 % 0 mm
16:34 -16.9 °C -19.4 °C 34269.7 hPa NNE 26.2 km/h 26.2 km/h 70 % 0 mm
16:39 -16.9 °C -19.4 °C 34269.7 hPa NNE 26.2 km/h 26.2 km/h 70 % 0 mm
16:44 -16.9 °C -19.4 °C 34303.6 hPa NNE 26.2 km/h 26.2 km/h 71 % 0 mm
16:49 -16.9 °C -19.4 °C 34303.6 hPa NNE 26.2 km/h 26.2 km/h 72 % 0 mm
16:54 -17 °C -19.4 °C 34303.6 hPa North 20.9 km/h 20.9 km/h 72 % 0 mm
16:59 -17 °C -19.4 °C 34269.7 hPa NE 22.5 km/h 26.7 km/h 72 % 0 mm
17:04 -17.1 °C -19.4 °C 34269.7 hPa NE 19.6 km/h 26.7 km/h 72 % 0 mm
17:09 -17.1 °C -19.4 °C 34269.7 hPa NE 19.6 km/h 24.8 km/h 72 % 0 mm
17:14 -17.1 °C -19.4 °C 34303.6 hPa NE 19.6 km/h 19.6 km/h 72 % 0 mm
17:19 -17.1 °C -19.4 °C 34303.6 hPa NE 19.6 km/h 19.6 km/h 72 % 0 mm
17:24 -17.2 °C -19.4 °C 34303.6 hPa NE 19.6 km/h 19.6 km/h 72 % 0 mm
17:29 -17.2 °C -19.4 °C 34303.6 hPa NE 19.6 km/h 19.6 km/h 72 % 0 mm
17:34 -17.2 °C -19.4 °C 34303.6 hPa NE 19.6 km/h 19.6 km/h 73 % 0 mm
17:39 -17.3 °C -19.4 °C 34303.6 hPa NE 19.6 km/h 19.6 km/h 74 % 0 mm
17:44 -17.3 °C -19.4 °C 34303.6 hPa NE 19.6 km/h 19.6 km/h 74 % 0 mm
17:50 -17.3 °C -19.4 °C 34303.6 hPa NE 19.6 km/h 19.6 km/h 75 % 0 mm
17:55 -17.3 °C -19.4 °C 34303.6 hPa NE 19.6 km/h 19.6 km/h 75 % 0 mm
18:00 -17.4 °C -19.4 °C 34303.6 hPa NE 14 km/h 14 km/h 76 % 0 mm
18:05 -17.4 °C -19.4 °C 34303.6 hPa NE 14 km/h 14 km/h 76 % 0 mm
18:10 -17.4 °C -19.4 °C 34303.6 hPa NE 14 km/h 14 km/h 77 % 0 mm
18:15 -17.4 °C -19.4 °C 34303.6 hPa NE 14 km/h 14 km/h 77 % 0 mm
18:20 -17.4 °C -19.4 °C 34303.6 hPa NE 14 km/h 14 km/h 78 % 0 mm
18:25 -17.4 °C -19.4 °C 34303.6 hPa NE 14 km/h 14 km/h 78 % 0 mm
18:30 -17.4 °C -19.4 °C 34303.6 hPa NE 14 km/h 14 km/h 78 % 0 mm
18:35 -17.4 °C -19.4 °C 34303.6 hPa NE 14 km/h 14 km/h 78 % 0 mm
18:40 -17.5 °C -19.4 °C 34303.6 hPa NE 14 km/h 14 km/h 78 % 0 mm
18:45 -17.5 °C -19.4 °C 34303.6 hPa NE 14 km/h 14 km/h 78 % 0 mm
18:50 -17.5 °C -19.4 °C 34303.6 hPa NE 14 km/h 14 km/h 78 % 0 mm
18:55 -17.5 °C -19.4 °C 34303.6 hPa NE 14 km/h 14 km/h 78 % 0 mm
19:00 -17.5 °C -19.4 °C 34303.6 hPa NE 14 km/h 14 km/h 78 % 0 mm
19:05 -17.6 °C -19.4 °C 34303.6 hPa NE 14 km/h 14 km/h 78 % 0 mm
19:10 -17.6 °C -19.4 °C 34303.6 hPa NE 14 km/h 14 km/h 78 % 0 mm
19:15 -17.6 °C -19.4 °C 34303.6 hPa NE 14 km/h 14 km/h 78 % 0 mm
19:20 -17.6 °C -19.4 °C 34303.6 hPa NE 14 km/h 14 km/h 78 % 0 mm
19:25 -17.6 °C -19.4 °C 34303.6 hPa NE 14 km/h 14 km/h 78 % 0 mm
19:30 -17.7 °C -19.4 °C 34303.6 hPa NE 14 km/h 14 km/h 78 % 0 mm
19:35 -17.7 °C -19.4 °C 34303.6 hPa NE 14 km/h 14 km/h 79 % 0 mm
19:40 -17.7 °C -19.4 °C 34303.6 hPa NE 14 km/h 14 km/h 79 % 0 mm
19:45 -17.7 °C -19.4 °C 34303.6 hPa NE 14 km/h 14 km/h 80 % 0 mm
19:50 -17.8 °C -20 °C 34303.6 hPa NE 14 km/h 14 km/h 80 % 0 mm
19:55 -17.8 °C -20 °C 34303.6 hPa NE 14 km/h 14 km/h 81 % 0 mm
20:00 -17.9 °C -20 °C 34303.6 hPa NE 14 km/h 14 km/h 81 % 0 mm
20:05 -17.9 °C -20 °C 34303.6 hPa NE 14 km/h 14 km/h 82 % 0 mm
20:10 -18 °C -20 °C 34303.6 hPa NE 14 km/h 14 km/h 82 % 0 mm
20:15 -18 °C -20 °C 34303.6 hPa NE 14 km/h 14 km/h 83 % 0 mm
20:20 -18.1 °C -20 °C 34303.6 hPa NE 14 km/h 14 km/h 83 % 0 mm
20:25 -18.1 °C -20 °C 34303.6 hPa NE 14 km/h 14 km/h 84 % 0 mm
20:30 -18.1 °C -20 °C 34303.6 hPa NE 14 km/h 14 km/h 84 % 0 mm
20:35 -18.1 °C -20 °C 34303.6 hPa NE 14 km/h 14 km/h 84 % 0 mm
20:41 -18.1 °C -19.4 °C 34303.6 hPa NE 14 km/h 14 km/h 85 % 0 mm
20:46 -18.1 °C -19.4 °C 34303.6 hPa NE 14 km/h 14 km/h 85 % 0 mm
20:51 -18.1 °C -19.4 °C 34303.6 hPa NE 14 km/h 14 km/h 85 % 0 mm
20:56 -18.1 °C -19.4 °C 34303.6 hPa NE 14 km/h 14 km/h 85 % 0 mm
21:01 -18.1 °C -19.4 °C 34337.4 hPa NE 14 km/h 14 km/h 85 % 0 mm
21:06 -18.2 °C -19.4 °C 34337.4 hPa NE 14 km/h 14 km/h 85 % 0 mm
21:11 -18.2 °C -19.4 °C 34337.4 hPa NE 14 km/h 14 km/h 85 % 0 mm
21:16 -18.2 °C -19.4 °C 34337.4 hPa NE 14 km/h 14 km/h 85 % 0 mm
21:21 -18.2 °C -19.4 °C 34337.4 hPa NE 14 km/h 14 km/h 85 % 0 mm
21:26 -18.2 °C -19.4 °C 34337.4 hPa NE 14 km/h 14 km/h 86 % 0 mm
21:31 -18.2 °C -19.4 °C 34337.4 hPa NE 14 km/h 14 km/h 86 % 0 mm
21:36 -18.2 °C -19.4 °C 34337.4 hPa NE 14 km/h 14 km/h 86 % 0 mm
21:41 -18.2 °C -19.4 °C 34337.4 hPa NE 14 km/h 14 km/h 87 % 0 mm
21:47 -18.2 °C -19.4 °C 34337.4 hPa NE 14 km/h 14 km/h 87 % 0 mm
21:52 -18.2 °C -19.4 °C 34337.4 hPa NE 14 km/h 14 km/h 87 % 0 mm
21:57 -18.1 °C -19.4 °C 34337.4 hPa NE 14 km/h 14 km/h 87 % 0 mm
22:02 -18.1 °C -19.4 °C 34337.4 hPa NE 14 km/h 14 km/h 88 % 0 mm
22:07 -18.1 °C -19.4 °C 34337.4 hPa NE 14 km/h 14 km/h 88 % 0 mm
22:12 -18.1 °C -19.4 °C 34337.4 hPa NE 14 km/h 14 km/h 87 % 0 mm
22:17 -18.1 °C -19.4 °C 34337.4 hPa NE 14 km/h 14 km/h 87 % 0 mm
22:22 -18.1 °C -19.4 °C 34337.4 hPa NE 14 km/h 14 km/h 87 % 0 mm
22:27 -18.1 °C -19.4 °C 34337.4 hPa NE 14 km/h 14 km/h 86 % 0 mm
22:32 -18.1 °C -19.4 °C 34337.4 hPa NE 14 km/h 14 km/h 86 % 0 mm
22:37 -18.1 °C -19.4 °C 34337.4 hPa ENE 16.3 km/h 16.3 km/h 85 % 0 mm
22:42 -18.1 °C -19.4 °C 34337.4 hPa NNE 18.7 km/h 18.7 km/h 85 % 0 mm
22:47 -18.1 °C -19.4 °C 34337.4 hPa NE 20.9 km/h 20.9 km/h 85 % 0 mm
22:52 -18.1 °C -20 °C 34337.4 hPa NE 19.6 km/h 20.9 km/h 84 % 0 mm
22:57 -18.1 °C -20 °C 34337.4 hPa NE 22 km/h 26.7 km/h 83 % 0 mm
23:02 -18.1 °C -20 °C 34337.4 hPa NE 20.9 km/h 26.7 km/h 82 % 0 mm
23:07 -18.1 °C -20 °C 34337.4 hPa NE 22.5 km/h 22.5 km/h 82 % 0 mm
23:12 -18.1 °C -20 °C 34337.4 hPa NNE 19.2 km/h 22.5 km/h 81 % 0 mm
23:17 -18.1 °C -20 °C 34337.4 hPa NE 19.6 km/h 22.5 km/h 81 % 0 mm
23:22 -18.1 °C -20 °C 34337.4 hPa NE 22.5 km/h 22.5 km/h 81 % 0 mm
23:27 -18.1 °C -20 °C 34337.4 hPa NE 24.8 km/h 24.8 km/h 81 % 0 mm
23:32 -18.1 °C -20 °C 34337.4 hPa NE 14 km/h 24.8 km/h 82 % 0 mm
23:37 -18.1 °C -20 °C 34337.4 hPa NNE 22 km/h 22 km/h 82 % 0 mm
23:42 -18.1 °C -20 °C 34337.4 hPa NNE 22 km/h 22 km/h 82 % 0 mm
23:47 -18.2 °C -20 °C 34337.4 hPa NNE 22 km/h 22 km/h 82 % 0 mm
23:52 -18.2 °C -20 °C 34337.4 hPa NNE 22 km/h 22 km/h 81 % 0 mm
23:57 -18.2 °C -20 °C 34337.4 hPa NNE 14 km/h 22 km/h 81 % 0 mm
Le Gheer Warneton
Courtoisie de Weather Underground - 2.25 mb

Mise a jour : 25/02/2018 14:59:11
Généré par Cumulus 1.9.4 (1099)